Time,B instrument,Bx,By,Bz,sigma B,Ion instrument,Status,Tp_par,Tp_perp,carrot,r_sun,clat,clong,earth_he_angle,n_p,vp_x,vp_y,vp_z,vth_p_par,vth_p_perp
1980-07-28 01:17:20,-1,nan,nan,nan,nan,1,3,nan,nan,1698,0.88591617,2.8164723,171.59811,106.57468,nan,302.053,9.73056,-25.1195,nan,nan
1980-07-28 01:20:38,-1,nan,nan,nan,nan,1,4,nan,nan,1697,0.88589746,2.9444399,171.63791,106.64572,nan,nan,nan,nan,nan,nan
1980-07-28 01:20:39,1,-7.0,6.1,-2.2,0.0,1,1,25656.4,41932.8,1697,0.88589746,2.9444399,171.63791,106.64572,13.7632,305.334,7.43528,-35.1659,20.5805,26.3109
1980-07-28 01:22:44,1,-6.73333,6.46667,-2.2,0.210819,1,1,26788.2,38719.2,1697,0.88590544,2.9443016,171.61824,106.64558,13.2749,304.117,12.9394,-32.2935,21.0295,25.2826
1980-07-28 01:25:26,1,-6.6,7.1,-1.8,1.25607e-15,1,1,28663.3,41082.7,1697,0.88591748,2.9440956,171.5946,106.64539,12.6806,306.672,15.598,-28.9966,21.7531,26.0428
1980-07-28 01:28:11,1,-6.86667,7.06667,-1.4,0.210819,1,1,25304.2,35597.7,1697,0.88592947,2.9438887,171.56708,106.6452,13.3321,306.656,15.5152,-27.7169,20.4387,24.242
1980-07-28 01:30:52,1,-6.2,7.5,-1.5,0.305505,1,1,33039.1,41232.2,1697,0.88593751,2.9437513,171.5435,106.64507,14.4119,306.579,14.8211,-28.5599,23.3546,26.0901
1980-07-28 01:33:35,1,-6.6,7.16667,-1.53333,0.194365,1,1,27914.7,36055.5,1697,0.88594949,2.9435444,171.51987,106.64487,13.8014,305.588,14.0967,-28.1558,21.4671,24.3974
1980-07-28 01:36:17,1,-7.33333,6.1,-1.66667,0.352767,1,1,25792.1,37657.6,1697,0.88596147,2.9433384,171.49234,106.64468,12.8705,303.127,9.71783,-28.1975,20.6349,24.9335
1980-07-28 01:38:59,1,-6.86667,5.83333,-2.06667,0.282843,1,1,24569.0,37948.8,1697,0.88596952,2.9432011,171.46877,106.64455,13.3691,304.556,12.03,-31.5358,20.1396,25.0298
1980-07-28 01:41:41,1,-8.2,5.6,-0.7,0.0,1,1,22670.5,34876.0,1697,0.8859815,2.9429941,171.44513,106.64435,13.2459,301.244,7.00995,-25.7774,19.3459,23.995
1980-07-28 01:44:23,1,-8.35,5.1,-1.1,0.403113,1,1,27376.5,42140.4,1697,0.88599348,2.9427872,171.4176,106.64417,13.8058,300.182,5.71185,-26.819,21.2592,26.3759
1980-07-28 01:47:05,1,-7.6,5.4,-1.4,0.0,1,1,27132.9,41502.1,1697,0.88600552,2.9425812,171.39397,106.64397,12.9732,300.305,7.59694,-29.3522,21.1644,26.1754
1980-07-28 01:49:47,1,-7.8,4.86667,-1.53333,0.194365,1,1,25807.1,46812.9,1697,0.88601351,2.9424438,171.37039,106.64383,13.6835,299.852,6.85814,-29.0888,20.6409,27.7997
1980-07-28 01:52:29,1,-7.8,4.8,-1.8,0.0,1,1,25443.4,37848.7,1697,0.88602549,2.9422369,171.34286,106.64365,12.8518,298.866,4.40221,-32.0501,20.4949,24.9968
1980-07-28 01:55:11,1,-7.93333,4.2,-1.8,0.169967,1,1,31478.1,48850.3,1697,0.88603753,2.94203,171.31923,106.64345,13.2769,299.753,4.21574,-31.659,22.7962,28.3983
1980-07-28 01:57:53,1,-7.93333,4.16667,-1.93333,0.282843,1,1,24665.0,40516.3,1697,0.88604552,2.9418926,171.29565,106.64331,13.1376,299.194,1.50273,-30.9774,20.1789,25.8626
1980-07-28 02:00:35,1,-7.46667,5.1,-1.93333,0.42947,1,1,31150.1,41659.7,1697,0.88605756,2.9416866,171.26813,106.64313,13.8727,302.048,7.48038,-31.7783,22.6771,26.225
1980-07-28 02:03:17,1,-6.5,5.36667,-2.23333,0.253859,1,1,30321.2,37674.5,1697,0.88606954,2.9414797,171.24449,106.64293,13.9653,301.597,6.37922,-31.4598,22.3734,24.9392
1980-07-28 02:05:59,1,-7.0,5.2,-2.6,0.0,1,1,33044.6,45916.8,1697,0.88607752,2.9413424,171.21701,106.64279,14.8425,302.059,5.52756,-32.7685,23.3565,27.5324
1980-07-28 02:08:41,1,-7.33333,4.5,-1.4,0.512076,1,1,28046.6,42526.6,1697,0.8860895,2.9411354,171.19337,106.64259,13.3497,300.303,4.90383,-30.2554,21.5178,26.4965
1980-07-28 02:11:23,1,-7.33333,5.53333,-1.53333,0.282843,1,1,36931.3,44231.2,1697,0.88610148,2.9409294,171.16974,106.6424,15.1306,302.219,7.44385,-28.8106,24.6919,27.0223
1980-07-28 02:14:05,1,-6.46667,5.56667,-2.0,0.290593,1,1,36907.6,37523.0,1697,0.88611346,2.9407234,171.14221,106.64221,14.3925,303.935,5.96754,-30.384,24.684,24.889
1980-07-28 02:16:47,1,-6.46667,6.7,-0.166667,0.514242,1,1,32947.2,38978.4,1697,0.88612145,2.9405851,171.11864,106.64207,13.901,304.642,13.2463,-19.171,23.3221,25.367
1980-07-28 02:19:29,1,-6.9,5.13333,-1.4,0.298142,1,1,37022.4,40912.9,1697,0.88613343,2.9403791,171.095,106.64188,14.8853,301.774,4.53423,-27.6386,24.7224,25.9889
1980-07-28 02:22:11,1,-6.93333,4.93333,-1.8,0.194365,1,1,28230.0,39470.3,1697,0.88614541,2.9401731,171.06746,106.64168,14.081,304.217,6.98175,-26.9571,21.588,25.5266
1980-07-28 02:24:53,1,-6.8,5.25,-2.15,0.212132,1,1,33084.5,39751.2,1697,0.8861534,2.9400349,171.0439,106.64156,14.6548,303.321,3.07818,-29.1865,23.3706,25.6173
1980-07-28 02:27:35,1,-7.55,4.9,-2.2,0.180278,1,1,28734.2,40403.8,1697,0.88616538,2.9398289,171.02026,106.64136,14.3003,302.104,2.29862,-27.4722,21.78,25.8267
1980-07-28 02:30:17,1,-7.2,4.6,-2.2,0.0,1,1,31484.0,40059.7,1697,0.88617742,2.9396229,170.99272,106.64116,14.5708,303.661,0.42775,-29.6778,22.7983,25.7165
1980-07-28 02:32:59,1,-5.86667,3.33333,-1.7,0.253859,1,1,52056.1,51079.0,1697,0.88618541,2.9394846,170.96915,106.64102,16.6026,299.749,2.27435,-32.5436,29.3153,29.0388
1980-07-28 02:35:41,1,-6.06667,3.2,-2.9,0.149071,1,1,41751.8,55042.0,1697,0.88619739,2.9392786,170.94553,106.64084,15.1005,300.068,2.12024,-32.3178,26.254,30.1443
1980-07-28 02:38:23,1,-4.3,8.06667,1.96667,0.405518,1,1,43927.7,40972.7,1697,0.88620937,2.9390717,170.91798,106.64064,15.1546,304.961,20.5352,-22.3656,26.9294,26.0079
1980-07-28 02:41:05,1,-3.33333,8.7,3.46667,0.323179,1,1,50161.5,40967.2,1697,0.88622135,2.9388657,170.89435,106.64044,15.8121,310.152,20.8427,-15.773,28.7769,26.0062
1980-07-28 02:43:47,1,-4.16667,8.23333,3.46667,0.46188,1,1,43885.0,44359.0,1697,0.88622934,2.9387283,170.87077,106.6403,16.1066,302.518,20.1264,-18.6241,26.9164,27.0613
1980-07-28 02:46:29,1,-3.6,8.4,5.0,0.2,1,1,48084.4,41848.6,1697,0.88624132,2.9385214,170.84325,106.64012,15.2134,307.833,16.7664,-12.9566,28.1747,26.2844
1980-07-28 02:49:11,1,-3.0,8.65,4.85,0.212132,1,1,39656.9,40223.8,1697,0.8862533,2.9383154,170.81961,106.63992,15.3258,307.578,19.4366,-11.8306,25.5869,25.7691
1980-07-28 02:51:53,1,-3.6,8.4,5.0,0.2,1,1,46102.6,38871.4,1697,0.88626128,2.9381781,170.79213,106.63979,16.2637,305.663,18.6092,-13.9334,27.588,25.3322
1980-07-28 02:54:35,1,-3.33333,8.8,4.8,0.169967,1,1,39554.8,41646.0,1697,0.88627326,2.9379711,170.76849,106.63959,15.2791,306.592,17.7447,-14.7046,25.5539,26.2207
1980-07-28 02:57:17,1,-3.43333,8.26667,3.6,0.210819,1,1,55657.4,36408.7,1697,0.88628525,2.9377651,170.74486,106.63939,15.7811,306.154,19.6264,-18.909,30.3123,24.5166
1980-07-28 02:59:59,1,-3.83333,8.1,4.0,0.169967,1,1,41079.3,41161.5,1697,0.88629329,2.9376278,170.71739,106.63927,17.0201,302.118,19.7135,-20.4373,26.0417,26.0678
1980-07-28 03:02:41,1,-5.9,6.9,4.16667,0.188562,1,1,46506.5,41453.2,1697,0.88630521,2.9374208,170.69376,106.63907,15.6165,299.647,10.418,-16.7729,27.7086,26.16
1980-07-28 03:05:23,1,-5.1,7.66667,4.16667,0.24037,1,1,50331.2,38914.7,1697,0.88631719,2.9372149,170.67012,106.63887,15.1952,302.987,12.903,-17.8608,28.8255,25.3463
1980-07-28 03:08:05,1,-5.0,7.7,3.5,0.0,1,1,55867.7,41605.0,1697,0.88632917,2.9370079,170.64258,106.63867,15.6958,301.761,10.0347,-16.6877,30.3695,26.2078
1980-07-28 03:10:47,1,-5.55,7.0,4.1,0.206155,1,1,54967.6,38105.1,1697,0.88633716,2.9368706,170.61902,106.63855,15.5294,301.75,11.6394,-16.301,30.1239,25.0813
1980-07-28 03:13:29,1,-3.7,8.0,2.2,0.3,1,1,51747.4,39764.1,1697,0.88634914,2.9366646,170.59538,106.63835,17.1542,302.511,17.3151,-19.0137,29.2282,25.6214
1980-07-28 03:16:11,1,-2.9,8.6,2.85,0.229129,1,1,47771.5,36289.9,1697,0.88636112,2.9364576,170.56784,106.63815,16.1629,303.34,18.202,-19.1614,28.0829,24.4766
1980-07-28 03:18:53,1,-3.16667,8.46667,2.4,0.371184,1,1,46911.7,36925.4,1697,0.88636911,2.9363203,170.54427,106.63802,16.4856,299.991,17.5954,-19.3318,27.8291,24.69
1980-07-28 03:21:35,1,-4.96667,7.23333,2.56667,0.270801,1,1,47252.8,39276.5,1697,0.88638109,2.9361143,170.52063,106.63782,17.2868,301.324,18.2987,-18.2067,27.93,25.4639
1980-07-28 03:24:17,1,-4.83333,7.26667,2.36667,0.2,1,1,53915.2,38893.3,1697,0.88639307,2.9359074,170.49309,106.63762,16.3275,301.147,15.4912,-19.9495,29.8341,25.3394
1980-07-28 03:26:59,1,-4.4,7.3,2.4,0.270801,1,1,47563.3,39935.5,1697,0.88640106,2.93577,170.46953,106.6375,17.1998,303.072,17.2358,-17.8105,28.0217,25.6766
1980-07-28 03:29:41,1,-4.3,7.5,1.6,0.0,1,1,49129.0,37890.5,1697,0.88641304,2.935564,170.44589,106.6373,16.6329,300.752,15.2579,-21.0493,28.4791,25.0105
1980-07-28 03:32:23,1,-4.2,7.3,1.0,0.3,1,1,57854.0,39341.1,1697,0.88642496,2.9353571,170.41835,106.6371,16.1802,301.774,14.5549,-22.9726,30.9047,25.4848
1980-07-28 03:35:05,1,-3.75,7.45,0.6,0.494975,1,1,59112.1,38168.3,1697,0.88643694,2.9351511,170.39471,106.6369,16.3626,300.199,13.7728,-21.9246,31.2389,25.1021
1980-07-28 03:37:47,1,-3.3,6.5,-0.75,0.567891,1,1,55323.1,42763.8,1697,0.88644493,2.9350138,170.36723,106.63676,17.8189,299.796,11.8212,-26.5025,30.2212,26.5703
1980-07-28 03:40:29,1,-3.3,7.4,0.533333,0.188562,1,1,56317.5,37490.9,1697,0.88645691,2.9348068,170.34361,106.63658,15.9597,301.686,9.50809,-23.3098,30.4915,24.8783
1980-07-28 03:43:11,1,-2.53333,7.33333,0.1,0.210819,1,1,72760.0,42281.0,1697,0.88646889,2.9346008,170.31998,106.63638,17.2006,306.779,7.41258,-26.0295,34.6581,26.4199
1980-07-28 03:45:53,1,-2.26667,7.66667,0.766667,0.316228,1,1,51552.2,38553.2,1697,0.88647687,2.9344625,170.2925,106.63625,16.3571,306.483,12.5617,-19.0935,29.173,25.2283
1980-07-28 03:48:35,1,-4.03333,6.66667,1.06667,0.270801,1,1,54568.0,38224.3,1697,0.88648885,2.9342566,170.26886,106.63605,16.6815,301.692,8.21761,-16.9511,30.0142,25.1205
1980-07-28 03:51:17,1,-4.95,5.75,-0.05,0.165831,1,1,36178.8,37917.1,1697,0.88650084,2.9340506,170.24522,106.63585,14.6749,296.276,4.91447,-20.394,24.4391,25.0193
1980-07-28 03:53:59,1,0.15,8.5,3.85,0.273861,1,1,47027.9,39096.8,1697,0.88650882,2.9339123,170.21776,106.63573,15.8508,311.327,17.4833,-11.3124,27.8635,25.4055
1980-07-28 03:56:41,1,-1.3,8.16667,2.7,0.745356,1,1,43682.2,36051.2,1697,0.8865208,2.9337063,170.19412,106.63553,16.2491,308.065,16.6853,-10.9492,26.8541,24.3959
1980-07-28 03:59:23,1,-1.2,8.1,4.0,0.2,1,1,34512.3,37296.7,1697,0.88653278,2.9335003,170.17049,106.63533,16.1064,305.769,19.2012,-8.88182,23.8696,24.8138
1980-07-28 04:02:05,1,-1.7,8.0,3.33333,0.274874,1,1,42483.4,32887.2,1697,0.8865447,2.9332933,170.14294,106.63513,15.8232,303.756,16.8161,-7.74729,26.483,23.3008
1980-07-28 04:04:47,1,-2.2,7.6,3.3,0.0,1,1,39546.2,35051.6,1697,0.88655269,2.933156,170.11937,106.63499,16.3015,301.645,18.1043,-12.8355,25.5512,24.0554
1980-07-28 04:07:29,1,-1.83333,8.03333,2.53333,0.258199,1,1,40081.8,32943.1,1697,0.88656467,2.93295,170.09573,106.6348,15.2588,302.511,15.8239,-11.9399,25.7236,23.3206
1980-07-28 04:10:11,1,-1.1,8.1,2.86667,0.188562,1,1,56334.5,37648.3,1697,0.88657659,2.932744,170.06819,106.6346,16.7446,305.409,13.4125,-14.1667,30.4962,24.9305
1980-07-28 04:12:53,1,-1.36667,8.16667,3.36667,0.258199,1,1,40900.5,33890.4,1697,0.88658458,2.9326057,170.04463,106.63448,15.8015,304.502,13.9327,-13.5635,25.985,23.6535
1980-07-28 04:15:35,1,-2.13333,7.9,1.96667,0.312694,1,1,42456.6,37936.8,1697,0.88659656,2.9323997,170.021,106.63428,15.8748,301.974,14.7449,-13.4927,26.4747,25.0258
1980-07-28 04:18:14,1,-3.75,5.9,0.8,0.180278,1,1,41946.5,37760.5,1698,0.88663864,2.8034177,169.92215,106.56277,16.8362,299.097,11.2663,-13.4706,26.3152,24.9676
1980-07-28 04:18:17,1,-3.83333,5.86667,0.933333,0.270801,1,1,39589.4,38224.4,1697,0.88660848,2.9321938,169.99345,106.63408,17.0424,295.784,13.0344,-18.6679,25.5651,25.1205
1980-07-28 04:23:38,1,-3.45,6.55,2.05,0.384057,1,1,40680.4,31639.6,1697,0.88662839,2.9318495,169.94624,106.63374,14.7567,298.451,13.5081,-16.4168,25.915,22.8546
1980-07-28 04:29:02,1,-3.1,7.4,1.23333,0.512076,1,1,40820.1,39249.0,1697,0.88665235,2.9314375,169.89507,106.63335,16.0651,299.487,14.4146,-14.6646,25.9594,25.455
1980-07-28 04:34:26,1,-2.2,7.0,-0.4,0.875595,1,1,50139.8,34746.5,1697,0.88667226,2.9310932,169.84395,106.63301,15.9956,292.173,4.27423,-20.8269,28.7706,23.9504
1980-07-28 04:39:53,1,-2.9,5.63333,6.9,0.485341,1,1,52818.7,37313.1,1697,0.88669217,2.9307499,169.79285,106.63269,16.7363,299.355,5.28911,0.181003,29.5292,24.8192
1980-07-28 04:45:17,1,-1.6,7.2,2.95,0.229129,1,1,60730.7,34480.6,1697,0.88671613,2.930337,169.74557,106.63229,15.892,301.313,14.9006,-16.1238,31.6637,23.8586
1980-07-28 04:50:41,1,-5.3,4.93333,1.03333,0.266667,1,1,41308.5,38622.0,1697,0.88673604,2.9299936,169.69446,106.63196,16.6137,298.947,10.2595,-14.5885,26.1143,25.2508
1980-07-28 04:56:05,1,-4.1,5.3,-0.4,0.0,1,1,46898.5,36058.2,1697,0.88675994,2.9295807,169.64328,106.63156,17.0161,299.006,6.98916,-20.5541,27.8251,24.3983
1980-07-28 05:01:29,1,-4.6,6.1,2.0,0.0,1,1,48184.1,40566.8,1697,0.88677984,2.9292364,169.59607,106.63123,17.1235,299.618,9.76069,-12.2287,28.2039,25.8787
1980-07-28 05:06:53,1,-3.4,6.13333,1.63333,1.2693,1,1,40011.2,31887.1,1697,0.88679975,2.9288931,169.54495,106.63089,15.3275,299.481,11.834,-13.9068,25.7009,22.9438
1980-07-28 05:12:17,1,-3.16667,4.4,0.633333,0.641179,1,1,54797.3,40664.0,1697,0.88682365,2.9284811,169.49377,106.63049,17.8516,300.103,10.4625,-24.9679,30.0772,25.9097
1980-07-28 05:17:41,1,-3.5,5.4,5.3,0.0,1,1,38379.4,32045.1,1697,0.88684356,2.9281368,169.44267,106.63017,17.7505,301.977,8.70826,-7.36461,25.1714,23.0006
1980-07-28 05:23:05,1,-4.1,4.7,5.2,0.0,1,1,36142.1,29484.4,1697,0.88686746,2.9277248,169.3954,106.62978,17.8596,299.827,11.0846,-6.0494,24.4267,22.0625
1980-07-28 05:28:29,1,-3.93333,4.1,6.5,0.149071,1,1,37522.9,27869.4,1697,0.88688731,2.9273806,169.34428,106.62944,16.8703,301.109,7.046,-4.2961,24.8889,21.4497
1980-07-28 05:33:53,1,-4.1,4.13333,6.33333,0.343188,1,1,38164.0,31302.0,1697,0.88690722,2.9270372,169.29317,106.6291,17.6991,300.277,6.95085,-1.77293,25.1006,22.7323
1980-07-28 05:39:50,1,-3.0,3.9,7.43333,0.188562,1,1,31909.9,26276.0,1697,0.88693112,2.9266243,169.23808,106.62871,17.9506,299.506,8.78474,-5.72295,22.952,20.8275
1980-07-28 05:44:38,1,-3.46667,4.63333,7.56667,0.270801,1,1,28192.6,29543.8,1697,0.88695103,2.926281,169.19478,106.62837,16.5318,299.644,12.8737,-3.78976,21.5737,22.0847
1980-07-28 05:50:02,1,-4.3,5.5,6.0,0.223607,1,1,37982.1,28597.8,1697,0.88697493,2.925868,169.1436,106.62798,15.2334,297.385,10.4405,-2.87762,25.0407,21.7282
1980-07-28 05:55:26,1,-3.1,6.4,5.3,0.0,1,1,32971.9,31593.5,1697,0.88699484,2.9255247,169.09639,106.62764,16.2355,300.558,15.5268,-6.47016,23.3308,22.8379
1980-07-28 06:00:50,1,-1.76667,6.63333,5.4,0.194365,1,1,46559.6,29003.1,1697,0.88701475,2.9251814,169.04529,106.62732,17.7661,302.491,14.484,-6.03977,27.7244,21.8817
1980-07-28 06:06:17,1,-2.2,5.45,7.6,0.33541,1,1,36958.3,29436.6,1697,0.88703859,2.9247684,168.99409,106.62691,16.699,300.539,17.0284,-1.24527,24.701,22.0446
1980-07-28 06:11:41,-1,nan,nan,nan,nan,1,3,nan,nan,1697,0.88705844,2.9244251,168.94299,106.62659,nan,296.908,11.2105,-3.10243,nan,nan
1980-07-28 06:27:53,-1,nan,nan,nan,nan,1,3,nan,nan,1697,0.88712204,2.9233255,168.79349,106.62552,nan,293.57,16.6419,-9.26485,nan,nan
1980-07-28 06:33:17,1,-3.43333,6.96667,1.13333,0.416333,1,1,43364.3,32148.8,1697,0.88714594,2.9229136,168.7462,106.62511,15.2247,293.746,18.1633,-11.6643,26.7562,23.0378
1980-07-28 06:38:41,1,-4.1,6.45,1.6,0.269258,1,1,31729.1,31652.9,1697,0.88716578,2.9225702,168.6951,106.62479,14.7703,291.512,18.0021,-13.1242,22.8869,22.8594
1980-07-28 06:44:05,1,-3.93333,6.63333,1.73333,0.270801,1,1,45831.6,31849.5,1697,0.88718963,2.9221573,168.64391,106.62437,15.671,293.205,16.8523,-11.8512,27.5068,22.9303
1980-07-28 06:49:29,1,-2.6,6.9,0.5,0.0,1,1,47409.9,31921.1,1697,0.88720953,2.921814,168.5928,106.62405,15.5599,293.863,17.5626,-17.7272,27.9764,22.956
1980-07-28 06:54:53,1,-2.9,7.06667,0.766667,0.312694,1,1,46326.9,31633.1,1697,0.88722938,2.9214706,168.54559,106.62372,14.8696,296.713,16.1232,-13.7521,27.6551,22.8522
1980-07-28 07:00:17,1,-2.73333,7.1,0.9,0.368179,1,1,49124.6,33650.5,1697,0.88725328,2.9210587,168.49442,106.62332,15.3338,296.63,15.8668,-15.6273,28.4779,23.5697
1980-07-28 07:05:41,1,-1.3,7.0,-0.2,0.0,1,1,47347.6,31374.4,1697,0.88727313,2.9207144,168.4433,106.62299,14.9179,297.209,16.183,-15.4148,27.958,22.7586
1980-07-28 07:11:05,1,-4.3,5.7,0.4,0.0,1,1,43366.8,34940.2,1697,0.88729692,2.9203024,168.39601,106.62257,15.7752,292.706,13.2497,-14.0248,26.757,24.0171
1980-07-28 07:16:29,1,-2.8,6.3,-0.166667,0.188562,1,1,43328.8,32066.9,1697,0.88731676,2.9199591,168.34489,106.62224,14.9541,294.205,13.2977,-14.451,26.7452,23.0084
1980-07-28 07:21:53,1,-2.66667,6.36667,-0.3,0.210819,1,1,44163.3,35394.9,1697,0.88733667,2.9196148,168.29379,106.62192,15.3375,295.223,15.8122,-14.5394,27.0016,24.1729
1980-07-28 07:27:17,1,-1.9,6.9,-1.25,0.35,1,1,39550.6,26926.2,1697,0.88736045,2.9192028,168.24651,106.62151,13.3948,296.791,13.0536,-15.7955,25.5526,21.0836
1980-07-28 07:32:41,1,-1.2,6.5,-1.6,0.3,1,1,57480.6,32331.0,1697,0.8873803,2.9188595,168.19539,106.62117,15.6108,299.475,10.4862,-18.1267,30.8048,23.1029
1980-07-28 07:38:05,1,-6.5,4.26667,4.16667,0.278887,1,1,36935.4,31037.9,1697,0.88740414,2.9184475,168.14421,106.62077,15.4917,287.654,11.0623,-6.78005,24.6933,22.6362
1980-07-28 07:43:29,1,-5.9,5.0,2.83333,0.188562,1,1,37993.9,31920.0,1697,0.88742399,2.9181032,168.09309,106.62044,15.184,290.007,15.5288,-10.8031,25.0446,22.9556
1980-07-28 07:48:53,1,-5.3,5.3,2.55,0.269258,1,1,43218.1,31687.5,1697,0.88744384,2.9177599,168.04588,106.6201,16.2441,289.116,14.0547,-11.6708,26.711,22.8719
1980-07-28 07:54:17,1,-4.2,6.2,2.0,0.0,1,1,36271.6,32592.2,1697,0.88746768,2.9173479,167.99471,106.61971,16.0715,292.049,15.7136,-13.5144,24.4704,23.1961
1980-07-28 07:59:41,1,-4.43333,5.9,1.2,0.169967,1,1,44250.6,31783.9,1697,0.88748753,2.9170046,167.94359,106.61937,16.6996,289.736,14.0142,-13.4353,27.0282,22.9066
1980-07-28 08:05:05,1,-4.86667,4.76667,-0.4,0.278887,1,1,39923.5,34202.1,1697,0.88751131,2.9165916,167.89632,106.61897,16.7364,291.15,14.1429,-12.1425,25.6727,23.7621
1980-07-28 08:10:29,1,-4.3,5.7,0.2,0.2,1,1,40024.6,32593.1,1697,0.88753116,2.9162483,167.8452,106.61864,16.2894,290.561,11.0372,-15.8791,25.7052,23.1964
1980-07-28 08:15:53,1,-4.95,3.95,-1.2,0.158114,1,1,34782.9,32011.5,1697,0.88755095,2.915905,167.79408,106.6183,16.262,290.317,11.0693,-15.1765,23.963,22.9885
1980-07-28 08:21:17,1,-5.06667,3.73333,-1.2,0.371184,1,1,37691.8,32146.4,1697,0.88757473,2.915493,167.74289,106.61789,16.7618,291.905,7.81777,-15.9566,24.9449,23.0369
1980-07-28 08:26:41,1,-3.66667,5.53333,-1.2,0.210819,1,1,41090.1,33920.0,1697,0.88759458,2.9151497,167.69568,106.61755,16.6907,291.547,10.582,-16.775,26.0451,23.6639
1980-07-28 08:32:05,1,-4.8,4.9,-0.4,0.0,1,1,37672.6,34091.9,1697,0.88761836,2.9147367,167.6445,106.61716,16.0159,291.551,7.24149,-18.0069,24.9385,23.7238
1980-07-28 08:37:29,1,-4.0,4.8,-1.95,0.610328,1,1,38935.0,33377.3,1697,0.88763821,2.9143934,167.59338,106.61682,15.7215,290.757,7.72127,-19.3952,25.3529,23.4738
1980-07-28 08:42:53,1,-1.46667,4.86667,-3.26667,0.424264,1,1,37131.1,29421.4,1697,0.887658,2.9140501,167.54617,106.61649,15.1114,293.154,6.12845,-18.9377,24.7586,22.0389
1980-07-28 08:48:17,1,-1.7,4.9,-3.4,0.223607,1,1,37477.0,30924.6,1697,0.88768178,2.9136381,167.49498,106.61607,16.0817,293.673,5.94722,-21.3735,24.8737,22.5949
1980-07-28 08:53:41,1,-5.8,4.3,-0.1,0.223607,1,1,36831.1,32562.7,1697,0.88770163,2.9132948,167.44386,106.61574,16.7738,286.822,7.78626,-14.1422,24.6584,23.1856
1980-07-28 08:59:05,1,-5.3,4.1,0.0,0.223607,1,1,44819.1,34160.7,1697,0.88772541,2.9128828,167.39659,106.61534,18.4263,288.973,7.44269,-15.2023,27.2013,23.7477
1980-07-28 09:04:29,1,-4.5,3.95,-1.8,0.33541,1,1,40014.5,34070.6,1697,0.8877452,2.9125395,167.34547,106.61501,17.4597,291.866,6.29321,-20.459,25.702,23.7163
1980-07-28 09:09:53,1,-4.4,4.2,-2.0,0.0,1,1,42866.3,37374.1,1697,0.88776505,2.9121952,167.29436,106.61467,18.2418,293.464,7.40236,-19.8163,26.6021,24.8395
1980-07-28 09:15:17,1,-5.0,4.15,-1.4,0.33541,1,1,32794.2,33674.4,1697,0.88778877,2.9117842,167.24316,106.61426,16.7058,291.966,6.60805,-19.8606,23.2679,23.578
1980-07-28 09:20:41,1,-5.1,3.9,-1.6,0.0,1,1,35129.7,35588.8,1697,0.88780862,2.9114408,167.19595,106.61392,17.2805,290.963,5.90368,-19.8462,24.0822,24.239
1980-07-28 09:26:05,1,-4.7,4.0,-1.73333,0.188562,1,1,33573.0,32206.6,1697,0.88783234,2.9110289,167.14476,106.61351,17.187,291.439,7.62742,-20.925,23.5425,23.0584
1980-07-28 09:31:29,1,-4.83333,4.26667,-1.6,0.210819,1,1,33352.1,34810.8,1697,0.88785213,2.9106855,167.09364,106.61317,16.3025,292.062,5.92652,-20.8891,23.4649,23.9726
1980-07-28 09:36:53,1,-4.15,4.7,-2.2,0.206155,1,1,32590.2,30826.4,1697,0.88787198,2.9103413,167.04643,106.61284,16.568,291.899,5.80007,-19.5513,23.1954,22.559
1980-07-28 09:42:17,1,-3.15,4.9,-2.5,0.33541,1,1,40406.7,31359.9,1697,0.8878957,2.9099302,166.99524,106.61243,16.5268,289.838,3.59219,-18.5707,25.8276,22.7534
1980-07-28 09:47:41,1,-4.6,4.36667,-2.0,0.410961,1,1,32918.7,33331.9,1697,0.88791555,2.9095869,166.94412,106.61209,16.3535,291.829,6.45713,-18.3335,23.312,23.4578
1980-07-28 09:53:05,1,-5.53333,3.26667,-0.4,0.194365,1,1,32954.0,36948.3,1697,0.88793927,2.9091749,166.89294,106.61169,17.4615,289.457,2.68207,-19.0567,23.3245,24.6976
1980-07-28 09:58:29,1,-5.7,3.0,-0.2,0.3,1,1,34716.8,32116.3,1697,0.88795912,2.9088316,166.84572,106.61134,16.661,288.741,1.79337,-17.8703,23.9402,23.0261
1980-07-28 10:14:02,1,-4.45,3.45,-2.4,0.158114,1,1,32384.3,32011.9,1697,0.88802236,2.907733,166.7001,106.61026,15.7429,291.433,2.08201,-21.4096,23.122,22.9887
1980-07-28 10:19:26,1,-2.9,4.4,-2.3,0.223607,1,1,37447.9,32385.6,1697,0.88804215,2.9073896,166.65289,106.60992,16.4756,291.785,0.713147,-19.1984,24.864,23.1224
1980-07-28 10:24:50,1,-3.6,3.6,-3.1,0.0,1,1,31311.0,30753.3,1697,0.88806194,2.9070463,166.60178,106.60959,15.5425,291.787,0.953086,-22.7404,22.7356,22.5322
1980-07-28 10:25:29,1,-3.6,4.05,-2.7,0.206155,1,1,34524.7,30973.5,1697,0.88806587,2.9069777,166.59389,106.60951,15.8407,293.374,0.514827,-22.8224,23.8739,22.6127
1980-07-28 10:30:53,1,-2.6,5.8,0.3,0.3,1,1,25514.0,27932.2,1697,0.88808566,2.9066343,166.54668,106.60918,16.0124,294.56,5.04984,-18.6739,20.5233,21.4739
1980-07-28 10:36:17,1,-2.23333,3.8,-2.63333,0.514242,1,1,32029.0,31813.7,1697,0.88810939,2.9062223,166.49548,106.60876,16.7619,296.728,3.00233,-18.2899,22.9948,22.9174
1980-07-28 10:41:41,1,-2.6,2.3,-2.8,0.489898,1,1,32589.3,36313.1,1697,0.88812917,2.905879,166.44437,106.60843,15.658,298.62,2.89444,-20.2826,23.1951,24.4844
1980-07-28 10:47:05,1,-2.95,1.7,-3.0,0.180278,1,1,38843.2,38492.6,1697,0.8881529,2.905467,166.39317,106.60802,17.1918,295.022,-0.336257,-20.6554,25.323,25.2085
1980-07-28 10:52:29,1,-1.53333,3.03333,-3.4,0.603692,1,1,29844.3,30722.6,1697,0.88817269,2.9051237,166.34596,106.60768,17.3655,299.521,2.37611,-23.9164,22.1967,22.521
1980-07-28 10:57:53,1,-2.36667,2.23333,-3.4,0.278887,1,1,28033.6,31887.9,1697,0.88819247,2.9047804,166.29485,106.60735,17.3897,299.247,1.22263,-22.8206,21.5128,22.9441
1980-07-28 11:03:17,1,-1.6,2.3,-3.4,2.22045e-16,1,1,27397.6,27954.3,1697,0.88821614,2.9043694,166.24365,106.60693,16.7732,299.062,1.36227,-23.5295,21.2674,21.4824
1980-07-28 11:08:41,1,-1.6,4.5,-2.6,0.223607,1,1,35130.9,26910.9,1697,0.88823593,2.904026,166.19644,106.6066,16.5533,299.272,1.34437,-22.9427,24.0826,21.0777
1980-07-28 11:14:05,1,-1.7,1.76667,-3.5,0.274874,1,1,29636.3,35519.0,1697,0.88825959,2.903614,166.14525,106.60619,14.9484,303.282,1.55633,-17.9577,22.1192,24.2152
1980-07-28 11:19:29,1,-1.4,1.9,-4.1,3.14018e-16,1,1,28660.6,38275.4,1697,0.88827938,2.9032707,166.09412,106.60583,13.6119,304.805,-3.77272,-15.5817,21.7521,25.1373
1980-07-28 11:24:53,1,-0.9,2.6,-3.3,0.0,1,1,31182.7,37168.1,1697,0.88829911,2.9029274,166.04691,106.6055,13.3751,301.75,-4.22885,-17.6752,22.689,24.771
1980-07-28 11:30:17,1,-2.6,4.3,-2.3,0.458258,1,1,28877.0,35977.0,1697,0.88832283,2.9025154,165.99571,106.60509,12.0762,303.976,-14.0714,-23.0245,21.834,24.3708
1980-07-28 11:35:41,1,-3.06667,1.8,-3.03333,0.266667,1,1,30055.6,43971.9,1697,0.88834256,2.9021721,165.9446,106.60475,12.5216,311.147,-7.18834,-21.5803,22.2752,26.943